Location: Passo di Treia
(43.2833°N, 13.3333°E)
Time: 11:48:49
(UTC+00:00)

Meteor 1-11 Rocket - Pass Details

Date: 09 December 2019
Orbit: 831 x 916 km, 81.2° (Epoch: 26 January)

Event Time Altitude Azimuth Distance (km) Brightness Sun altitude
Rises 16:13:41 0° 352° (N) 3,561 6.8 -7.7°
Reaches altitude 10° 16:16:12 10° 355° (N) 2,617 6.1 -8.1°
Maximum altitude 16:22:09 65° 78° (ENE) 1,000 3.9 -9.1°
Drops below altitude 10° 16:28:02 10° 160° (SSE) 2,585 6.3 -10.1°
Sets 16:30:30 0° 163° (SSE) 3,514 7.0 -10.5°
